Zurück zum Katalog

STARLINK-3634

AktivKommunikationVLEO
NORAD 51798·PAYLOAD·🇺🇸 United States

Gestartet Feb 25, 2022 von Vandenberg Space Force Base

Loading…

Nächste Überflüge (nächste 24 Stunden)

TLE

AktuellSource: CelesTrak SupGP

Epoche: Sep 15, 2026, 02:09 UTC

1 51798C 22017AG  26258.09006944 -.00015990  00000+0 -47251-3 0  2582
2 51798  53.1584 203.3546 0001398  88.3694 158.0522 15.34393415    12

Verfolge STARLINK-3634 in Echtzeit mit AllMySat

Download on the App Store